This is the latest recevied weather packets stored in our database for station/object DK8HC-WX. If no packets are shown the sender has not sent any weather packets the latest 10 day(s).
| Time | Temp. | Humidity | Pressure | Rain* | Wind** | Luminosity | Snow |
|---|---|---|---|---|---|---|---|
| 1777389080 | 18.33° C | 29% | 1027 hPa | - | - | - | - |
| 1777387880 | 18.89° C | 28% | 1027.1 hPa | - | - | - | - |
| 1777387281 | 19.44° C | 28% | 1027.4 hPa | - | - | - | - |
| 1777386680 | 18.33° C | 28% | 1027.2 hPa | - | - | - | - |
| 1777386080 | 20° C | 27% | 1027.3 hPa | - | - | - | - |
| 1777385480 | 19.44° C | 28% | 1027.4 hPa | - | - | - | - |
| 1777384880 | 18.89° C | 27% | 1027.3 hPa | - | - | - | - |
| 1777384280 | 19.44° C | 29% | 1027.4 hPa | - | - | - | - |
| 1777383680 | 19.44° C | 29% | 1027.3 hPa | - | - | - | - |
| 1777383081 | 20° C | 30% | 1027.6 hPa | - | - | - | - |
| 1777382481 | 18.89° C | 30% | 1027.6 hPa | - | - | - | - |
| 1777381880 | 17.78° C | 31% | 1027.3 hPa | - | - | - | - |
| 1777381280 | 17.22° C | 35% | 1027.5 hPa | - | - | - | - |
| 1777380680 | 15.56° C | 37% | 1027.3 hPa | - | - | - | - |
| 1777380080 | 15.56° C | 37% | 1027.3 hPa | - | - | - | - |
| 1777379480 | 15.56° C | 39% | 1027.3 hPa | - | - | - | - |
| 1777378880 | 15° C | 39% | 1027.4 hPa | - | - | - | - |
| 1777378280 | 15.56° C | 40% | 1027.6 hPa | - | - | - | - |
| 1777377680 | 15.56° C | 39% | 1027.6 hPa | - | - | - | - |
| 1777377080 | 15° C | 39% | 1027.5 hPa | - | - | - | - |
| 1777376480 | 15° C | 42% | 1027.7 hPa | - | - | - | - |
| 1777375880 | 15° C | 44% | 1028 hPa | - | - | - | - |
| 1777375280 | 14.44° C | 43% | 1027.8 hPa | - | - | - | - |
| 1777374680 | 15° C | 45% | 1027.7 hPa | - | - | - | - |
| 1777374080 | 13.89° C | 48% | 1027.9 hPa | - | - | - | - |
* Rain since midnight (hover to see other rain measurements)
** Current wind speed in m/s (hover to see current wind gust speed)